[[{"header":{"parameterUnit":"m.s-1","parameterCategory":1,"la1":30.2991,"la2":30.254,"lo1":-89.0895,"lo2":-89.0444,"dy":0.0017,"dx":0.0017,"nx":28,"ny":28,"refTime":"2023-10-24T09:00:00:Z","depth":0,"parameterNumber":2,"parameterNumberName":"U-component_of_WINDS"},"data":[0,0,0,0,0,0,0,0,0,0,0,0,0,0,0,0,0,0,0,0,0,0,0,0,0,0,0,0,0,0,0,0,0,0,0,0,0,0,0,0,0,0,0,0,0,0,0,0,0,0,0,0,0,0,0,0,0,0,-6.9665,-6.9665,0,-6.9634,-6.9634,-6.9633,-6.9495,-6.9492,-6.9489,-6.9486,-6.9455,-6.9457,-6.9459,0,0,0,0,0,0,0,0,0,0,0,0,0,-6.9608,-6.961,-6.9665,-6.9665,-6.9664,-6.9634,-6.9634,-6.9633,-6.9496,-6.9492,-6.9488,-6.9484,-6.9454,-6.9456,-6.9459,0,0,0,0,0,0,0,0,0,0,0,0,0,-6.9611,-6.9611,-6.9665,-6.9592,-6.9585,-6.9634,-6.9634,-6.9633,-6.9497,-6.9492,-6.9487,-6.9483,-6.9453,-6.9456,-6.9459,-6.9576,0,0,-6.9469,-6.9471,0,0,0,0,0,0,0,0,-6.9611,-6.9613,-6.9603,-6.9597,-6.959,-6.9564,-6.9602,-6.9614,-6.9498,-6.953,-6.9486,-6.948,-6.9495,-6.9494,-6.9499,-6.9575,-6.9573,-6.947,-6.9472,-6.9473,-6.9474,0,0,0,0,0,0,0,-6.9611,-6.9614,-6.9653,-6.9603,-6.9595,-6.9562,-6.9557,-6.9604,-6.954,-6.9527,-6.9517,-6.9515,-6.949,-6.9496,-6.9497,-6.9573,-6.947,-6.9472,-6.9474,-6.9476,-6.9744,-6.9749,0,0,0,0,0,0,-6.9621,-6.9614,-6.9654,-6.9652,-6.9589,-6.9567,-6.9561,-6.9577,-6.9539,-6.9529,-6.952,-6.9509,-6.9493,-6.9494,-6.9496,-6.9629,-6.9473,-6.9476,-6.9478,-6.9739,-6.9745,-6.9751,0,0,0,0,0,0,-6.962,-6.9626,-6.9655,-6.963,-6.9632,-6.9573,-6.9592,-6.9579,-6.9584,-6.9533,-6.9521,-6.9537,-6.9489,-6.9491,-6.9557,-6.9626,-6.9478,-6.948,-6.9733,-6.9741,-6.9748,-6.9897,0,0,0,0,0,0,-6.9619,-6.9626,-6.9669,-6.9632,-6.9633,-6.9716,-6.9596,-6.9582,-6.959,-6.9576,-6.9547,-6.9537,-6.9486,-6.9553,-6.9561,-6.9628,-6.9483,-6.9726,-6.9736,-6.9745,-6.9885,-6.9909,-6.9929,0,0,0,0,0,-6.9617,-6.9712,-6.9672,-6.9677,-6.9685,-6.9721,-6.9721,-6.966,-6.9597,-6.9639,-6.9607,-6.9538,-6.9619,-6.9561,-6.9568,-6.9637,-6.9721,-6.9733,-6.9745,-6.9876,-6.9904,-6.9928,0,0,0,0,0,0,-6.9756,-6.9705,-6.966,-6.9745,-6.9739,-6.9697,-6.9748,-6.9692,-6.9702,-6.9689,-6.9613,-6.9608,-6.9685,-6.9668,-6.9605,-6.9749,-6.9658,-6.9672,-6.9756,-6.9782,-6.9804,-6.9804,-6.9486,0,0,0,0,0,-6.9798,-6.983,-6.9784,-6.9864,-6.9863,-6.9808,-6.982,-6.9774,-6.9764,-6.976,-6.9732,-6.9725,-6.9749,-6.9765,-6.9784,-6.9885,-6.9876,-6.9936,-6.9958,-6.9976,-6.9987,-7.0039,-7.0065,-6.9789,-6.9789,-6.9789,0,0,-6.9881,-6.9858,-6.9882,-6.9891,-6.988,-6.9916,-6.9805,-6.9847,-6.9873,-6.9766,-6.9825,-6.9807,-6.9794,-6.9878,-6.9913,-6.9866,-7.0062,-6.9991,-7.0006,-7.0007,-7.0053,-7.008,-7.0103,-6.9797,-6.9795,-6.9794,0,0,-7.0051,-7.0038,-7.0102,-7.0095,-7.008,-7.0044,-7.006,-7.0028,-7.0011,-7.0071,-6.9992,-7.0023,-7.0065,-7.0059,-7.0062,-7.0236,-7.0173,-7.0245,-7.0356,-7.0407,-7.0429,-7.0448,-7.0508,-7.0531,-7.0258,-7.0258,-7.0258,0,-7.0157,-7.0206,-7.0143,-7.019,-7.0197,-7.0104,-7.017,-7.0166,-7.0159,-7.0165,-7.0114,-7.0166,-7.0151,-7.0232,-7.0275,-7.0282,-7.0297,-7.0245,-7.0431,-7.0449,-7.0466,-7.0522,-7.0545,-7.0267,-7.0266,-7.0265,-7.0264,0,-7.0337,-7.0373,-7.0428,-7.0423,-7.0437,-7.0493,-7.0439,-7.0461,-7.0416,-7.0385,-7.0448,-7.0428,-7.0441,-7.0459,-7.0414,-7.0534,-7.0505,-7.0445,-7.0351,-7.0502,-7.0553,-7.0575,-7.0279,-7.0276,-7.0273,-7.0271,0,0,-7.0586,-7.055,-7.0571,-7.0568,-7.0549,-7.0576,-7.063,-7.0644,-7.0663,-7.0664,-7.0706,-7.0747,-7.069,-7.0694,-7.065,-7.0696,-7.0833,-7.0628,-7.0627,-7.0664,-7.0963,-7.1006,-7.1032,-7.0794,-7.0798,-7.0801,-7.0963,0,-7.0746,-7.0834,-7.0781,-7.0878,-7.0911,-7.0827,-7.0874,-7.0867,-7.0842,-7.0867,-7.0839,-7.0868,-7.0793,-7.0794,-7.0837,-7.0808,-7.0891,-7.0796,-7.0831,-7.0833,-7.0832,-7.1059,-7.1104,-7.1257,-7.0983,-7.0986,-7.0989,0,-7.0942,-7.0952,-7.1052,-7.1028,-7.104,-7.1083,-7.1092,-7.1118,-7.111,-7.1089,-7.1096,-7.1041,-7.1093,-7.1005,-7.1076,-7.1012,-7.1025,-7.1013,-7.1018,-7.1015,-7.0916,-7.1058,-7.1305,-7.1326,-7.102,-7.1018,-7.1015,0,-7.1111,-7.115,-7.1215,-7.1216,-7.119,-7.1222,-7.1213,-7.1201,-7.1214,-7.1223,-7.123,-7.1247,-7.1254,-7.1269,-7.122,-7.1161,-7.1297,-7.1205,-7.1279,-7.1281,-7.1307,-7.1305,-7.1555,-7.1323,-7.1323,-7.1322,-7.1322,0,-7.1292,-7.1356,-7.129,-7.133,-7.14,-7.134,-7.1411,-7.1393,-7.1384,-7.1419,-7.135,-7.1384,-7.132,-7.1349,-7.1312,-7.1375,-7.138,-7.1364,-7.1352,-7.1367,-7.1369,-7.137,-7.1357,-7.1328,-7.1327,-7.1326,-7.1325,0,-7.1489,-7.1448,-7.1513,-7.1485,-7.148,-7.1533,-7.1508,-7.1544,-7.1517,-7.1562,-7.157,-7.1526,-7.1556,-7.1511,-7.1536,-7.1512,-7.1598,-7.1573,-7.1601,-7.1591,-7.1667,-7.1659,-7.1922,-7.1953,-7.1706,-7.1708,-7.1711,0,-7.1605,-7.1652,-7.1631,-7.165,-7.1645,-7.1676,-7.1689,-7.1635,-7.1651,-7.1649,-7.1685,-7.171,-7.1726,-7.1779,-7.1749,-7.1769,-7.1741,-7.1833,-7.1743,-7.1757,-7.1738,-7.1734,-7.1738,-7.1849,-7.1852,-7.1854,-7.1856,0,-7.1814,-7.1793,-7.1814,-7.183,-7.1849,-7.1858,-7.1863,-7.1883,-7.1826,-7.1848,-7.1879,-7.1892,-7.1919,-7.1945,-7.1958,-7.1948,-7.1893,-7.1886,-7.1903,-7.1916,-7.1929,-7.192,-7.1646,-7.1878,-7.1876,-7.1875,-7.1873,-7.1873,-7.1971,-7.201,-7.2001,-7.2028,-7.2027,-7.2034,-7.2066,-7.2045,-7.2069,-7.2086,-7.2054,-7.2093,-7.2088,-7.2099,-7.2097,-7.2127,-7.2087,-7.2113,-7.2119,-7.2125,-7.2135,-7.1929,-7.213,-7.2129,-7.2129,-7.2128,-7.2128,0,-7.2173,-7.2165,-7.2191,-7.2201,-7.2223,-7.2173,-7.2177,-7.2198,-7.2233,-7.2233,-7.2252,-7.2288,-7.2314,-7.2289,-7.2309,-7.2338,-7.2313,-7.2345,-7.234,-7.2338,-7.2171,-7.2152,-7.2365,-7.2365,-7.2365,-7.2365,-7.2365,-7.2365,-7.2281,-7.2343,-7.2322,-7.2384,-7.2375,-7.2413,-7.2419,-7.2426,-7.2425,-7.2469,-7.249,-7.2475,-7.2465,-7.2485,-7.2506,-7.2498,-7.2508,-7.2548,-7.2531,-7.2374,-7.235,-7.2328,-7.2309,-7.2551,-7.2552,-7.2695,-7.2696,-7.2697]},{"header":{"parameterUnit":"m.s-1","parameterCategory":1,"la1":30.2991,"la2":30.254,"lo1":-89.0895,"lo2":-89.0444,"dy":0.0017,"dx":0.0017,"nx":28,"ny":28,"refTime":"2023-10-24T09:00:00:Z","depth":0,"parameterNumber":3,"parameterNumberName":"V-component_of_WINDS"},"data":[0,0,0,0,0,0,0,0,0,0,0,0,0,0,0,0,0,0,0,0,0,0,0,0,0,0,0,0,0,0,0,0,0,0,0,0,0,0,0,0,0,0,0,0,0,0,0,0,0,0,0,0,0,0,0,0,0,0,2.2971,2.2971,0,2.2995,2.2996,2.2996,2.3039,2.304,2.3041,2.3041,2.306,2.306,2.306,0,0,0,0,0,0,0,0,0,0,0,0,0,2.2957,2.2957,2.2971,2.2971,2.2971,2.2995,2.2996,2.2996,2.3039,2.304,2.3041,2.3042,2.306,2.306,2.306,0,0,0,0,0,0,0,0,0,0,0,0,0,2.297,2.2957,2.2971,2.2996,2.2998,2.2995,2.2996,2.2996,2.3039,2.304,2.3041,2.3042,2.3061,2.306,2.306,2.3032,0,0,2.3059,2.3058,0,0,0,0,0,0,0,0,2.2969,2.2971,2.2992,2.2994,2.2997,2.3016,2.2998,2.3008,2.3038,2.3023,2.3041,2.3043,2.3044,2.3045,2.3047,2.3033,2.3034,2.3058,2.3058,2.3058,2.3058,0,0,0,0,0,0,0,2.2968,2.297,2.298,2.2992,2.2995,2.3005,2.3008,2.3,2.3026,2.3025,2.3028,2.303,2.3046,2.3047,2.3047,2.3034,2.3058,2.3058,2.3058,2.3058,2.3002,2.3001,0,0,0,0,0,0,2.2964,2.2969,2.298,2.2981,2.2986,2.3004,2.3007,2.3008,2.3026,2.303,2.3029,2.3032,2.3047,2.3048,2.3048,2.3019,2.3058,2.3058,2.3057,2.3003,2.3001,2.3,0,0,0,0,0,0,2.2964,2.2965,2.2979,2.2976,2.2978,2.3003,2.3003,2.3008,2.301,2.303,2.3034,2.3026,2.3048,2.3049,2.3037,2.302,2.3058,2.3057,2.3004,2.3003,2.3001,2.2958,0,0,0,0,0,0,2.2963,2.2965,2.2955,2.2975,2.2978,2.2968,2.3002,2.3008,2.301,2.3014,2.3028,2.3032,2.3049,2.3037,2.3037,2.302,2.3057,2.3006,2.3004,2.3001,2.2961,2.2955,2.295,0,0,0,0,0,2.2963,2.294,2.2954,2.2955,2.2967,2.2967,2.2968,2.299,2.3008,2.2998,2.3012,2.3031,2.3022,2.3036,2.3035,2.3018,2.3007,2.3004,2.3002,2.2964,2.2956,2.295,0,0,0,0,0,0,2.2914,2.2943,2.2959,2.2943,2.2952,2.2974,2.2962,2.2981,2.2984,2.2988,2.3013,2.3016,2.3001,2.3009,2.3023,2.2994,2.3018,2.3015,2.2989,2.2982,2.2977,2.2975,2.3056,0,0,0,0,0,2.2902,2.2901,2.2925,2.2908,2.2913,2.2937,2.2937,2.2954,2.2964,2.2967,2.298,2.2987,2.2987,2.2985,2.2985,2.2963,2.2967,2.2951,2.2946,2.2941,2.2937,2.2928,2.2921,2.2991,2.2991,2.2991,0,0,2.2875,2.2891,2.2888,2.2899,2.2909,2.2906,2.2939,2.2934,2.2932,2.2966,2.2956,2.2966,2.2976,2.296,2.2953,2.2965,2.292,2.2937,2.2933,2.2933,2.2924,2.2918,2.2912,2.2989,2.2989,2.299,0,0,2.2826,2.2838,2.2827,2.2836,2.2851,2.2868,2.2865,2.2885,2.2894,2.2885,2.2911,2.2908,2.2906,2.2912,2.2915,2.2873,2.2891,2.2872,2.2842,2.2832,2.2826,2.2822,2.2807,2.2801,2.2869,2.2869,2.2869,0,2.2791,2.2789,2.2817,2.2812,2.2816,2.285,2.2838,2.2845,2.2858,2.286,2.2875,2.2874,2.2883,2.2869,2.286,2.2861,2.2858,2.2869,2.2825,2.2821,2.2817,2.2803,2.2797,2.2866,2.2867,2.2867,2.2867,0,2.2746,2.2745,2.2733,2.2748,2.2751,2.2742,2.2768,2.2768,2.2785,2.28,2.2791,2.2804,2.2808,2.2807,2.2822,2.2795,2.2803,2.2821,2.2846,2.2807,2.2795,2.279,2.2863,2.2864,2.2864,2.2865,0,0,2.2664,2.2698,2.2693,2.2701,2.2722,2.2721,2.2714,2.2721,2.272,2.2729,2.2723,2.2722,2.274,2.2744,2.2761,2.2752,2.2719,2.2772,2.2772,2.2761,2.2691,2.2677,2.267,2.2732,2.2731,2.273,2.269,0,2.2619,2.261,2.2637,2.2621,2.2621,2.2655,2.2649,2.266,2.2675,2.2675,2.269,2.269,2.2713,2.2716,2.2709,2.2724,2.2705,2.2727,2.2726,2.2725,2.2722,2.2664,2.2648,2.261,2.2685,2.2685,2.2684,0,2.2564,2.2574,2.2559,2.2583,2.2584,2.2578,2.2588,2.2588,2.2602,2.2614,2.262,2.2641,2.2635,2.266,2.2652,2.2667,2.2668,2.2676,2.2675,2.2675,2.2701,2.2661,2.2598,2.2592,2.2676,2.2677,2.2678,0,2.2506,2.2515,2.2508,2.2514,2.2542,2.2537,2.2548,2.2564,2.2567,2.2575,2.2578,2.2584,2.2587,2.2591,2.2613,2.2629,2.2603,2.263,2.2611,2.2611,2.2603,2.2603,2.2538,2.2605,2.2605,2.2605,2.2605,0,2.2452,2.2442,2.2483,2.2478,2.2468,2.2499,2.2487,2.2501,2.2516,2.2514,2.2543,2.254,2.257,2.2571,2.2588,2.2579,2.258,2.2589,2.2593,2.2586,2.2585,2.2586,2.2589,2.2603,2.2604,2.2604,2.2604,0,2.2385,2.2412,2.2407,2.2435,2.2442,2.2433,2.2457,2.2453,2.2471,2.2469,2.247,2.2497,2.2499,2.2523,2.2529,2.2541,2.2526,2.2535,2.2521,2.2524,2.2505,2.2507,2.2438,2.2431,2.2502,2.2501,2.2501,0,2.2349,2.2342,2.2371,2.2374,2.2384,2.2387,2.2392,2.2422,2.2425,2.2443,2.2437,2.2443,2.2449,2.2451,2.247,2.2476,2.2486,2.2462,2.2486,2.248,2.2486,2.2486,2.2485,2.2456,2.2455,2.2454,2.2453,0,2.2282,2.2296,2.2303,2.2315,2.2321,2.2331,2.2343,2.2342,2.2376,2.2378,2.2383,2.2388,2.2397,2.2402,2.2412,2.2421,2.2443,2.2446,2.2442,2.2434,2.2426,2.2431,2.2507,2.2447,2.2448,2.2448,2.2448,2.2449,2.2229,2.2225,2.2246,2.2253,2.2266,2.2277,2.2277,2.2296,2.2301,2.2312,2.233,2.2332,2.2348,2.2364,2.2372,2.2374,2.2386,2.238,2.2379,2.2377,2.2373,2.2427,2.2376,2.2376,2.2376,2.2376,2.2376,0,2.2163,2.218,2.2186,2.2204,2.2209,2.2232,2.2247,2.225,2.2252,2.2267,2.2273,2.2279,2.2285,2.2306,2.2314,2.2311,2.2321,2.2312,2.2312,2.2315,2.2361,2.2364,2.2304,2.2304,2.2304,2.2304,2.2304,2.2304,2.213,2.2126,2.2144,2.2147,2.2162,2.2167,2.2174,2.2184,2.2196,2.2202,2.2209,2.2223,2.2241,2.2251,2.2257,2.2263,2.2264,2.2252,2.2261,2.2304,2.2311,2.2318,2.232,2.2252,2.2252,2.2214,2.2214,2.2213]}]]